Change the Weather History Date:

Wednesday, February 26, 2014

  Actual Average Record
Temperature  
Mean Temperature 10 °F -  
Max Temperature 28 °F 35 °F 51 °F (1998)
Min Temperature -7 °F 20 °F -13 °F (2015)
Degree Days  
Heating Degree Days 54    
Moisture  
Dew Point 0 °F    
Average Humidity 65    
Maximum Humidity 78    
Minimum Humidity 47    
Precipitation  
Precipitation 0.00 in - - ()
Sea Level Pressure  
Sea Level Pressure 30.09 in    
Wind  
Wind Speed 9 mph (WSW)    
Max Wind Speed 25 mph    
Max Gust Speed 36 mph    
Visibility 10 miles    
Events      
Averages and records for this station are not official NWS values.
T = Trace of Precipitation, MM = Missing Value Source: NWS Daily Summary

Daily Weather History Graph

Daily Weather History Graph

Search for Another Location

Airport or City:

Trip Planner

Search our weather history database for the weather conditions in past years. The results will help you decide how hot, cold, wet, or windy it might be!

Date:

Astronomy

Feb. 26, 2014 Rise Set
Actual Time 7:01 AM CST 6:08 PM CST
Civil Twilight 6:33 AM CST 6:36 PM CST
Nautical Twilight 6:00 AM CST 7:08 PM CST
Astronomical Twilight 5:28 AM CST 7:41 PM CST
Moon 4:50 AM CST (2/26) 3:22 PM CST (2/26)
Length of Visible Light 12h 03m
Length of Day
11h 06m
Waning Crescent, 10% of the Moon is Illuminated
Feb 26
Waning Crescent
Mar 1
New
Mar 8
First Quarter
Mar 16
Full
Mar 23
Last Quarter

Hourly Weather History & Observations

Time (CST) Temp. Windchill Dew Point Humidity Pressure Visibility Wind Dir Wind Speed Gust Speed Precip Events Conditions
12:15 AM -2.2 °F -10.4 °F -9.4 °F 71% 30.42 in 10.0 mi West 3.5 mph - N/A   Clear
12:35 AM -2.2 °F -12.5 °F -9.4 °F 71% 30.42 in 10.0 mi West 4.6 mph - N/A   Partly Cloudy
12:55 AM -2.2 °F -12.5 °F -9.4 °F 71% 30.42 in 10.0 mi West 4.6 mph - N/A   Mostly Cloudy
1:15 AM -4.0 °F -17.8 °F -9.4 °F 78% 30.42 in 10.0 mi West 6.9 mph - N/A   Mostly Cloudy
1:35 AM -4.0 °F -17.8 °F -11.2 °F 71% 30.42 in 10.0 mi West 6.9 mph - N/A   Scattered Clouds
1:55 AM -4.0 °F -14.6 °F -11.2 °F 71% 30.41 in 10.0 mi WNW 4.6 mph - N/A   Partly Cloudy
2:15 AM -4.0 °F - -11.2 °F 71% 30.40 in 10.0 mi Calm Calm - N/A   Partly Cloudy
2:35 AM -4.0 °F -14.6 °F -11.2 °F 71% 30.38 in 10.0 mi West 4.6 mph - N/A   Clear
2:55 AM -5.8 °F -16.7 °F -11.2 °F 77% 30.37 in 10.0 mi WSW 4.6 mph - N/A   Clear
3:15 AM -4.0 °F -14.6 °F -9.4 °F 78% 30.36 in 10.0 mi WSW 4.6 mph - N/A   Clear
3:35 AM -5.8 °F -14.5 °F -11.2 °F 77% 30.35 in 10.0 mi SSW 3.5 mph - N/A   Clear
3:55 AM -5.8 °F - -11.2 °F 77% 30.35 in 10.0 mi Calm Calm - N/A   Partly Cloudy
4:15 AM -5.8 °F -19.9 °F -11.2 °F 77% 30.33 in 10.0 mi WSW 6.9 mph - N/A   Mostly Cloudy
4:35 AM -5.8 °F -18.4 °F -11.2 °F 77% 30.32 in 10.0 mi WSW 5.8 mph - N/A   Mostly Cloudy
4:55 AM -5.8 °F -18.4 °F -11.2 °F 77% 30.31 in 10.0 mi WSW 5.8 mph - N/A   Partly Cloudy
5:15 AM -5.8 °F -16.7 °F -11.2 °F 77% 30.31 in 10.0 mi WSW 4.6 mph - N/A   Clear
5:35 AM -7.6 °F -18.8 °F -13.0 °F 77% 30.30 in 10.0 mi WSW 4.6 mph - N/A   Clear
5:55 AM -7.6 °F -16.5 °F -13.0 °F 77% 30.28 in 10.0 mi WSW 3.5 mph - N/A   Clear
6:15 AM -7.6 °F -18.8 °F -13.0 °F 77% 30.28 in 10.0 mi SW 4.6 mph - N/A   Clear
6:35 AM -7.6 °F -20.6 °F -13.0 °F 77% 30.27 in 10.0 mi WSW 5.8 mph - N/A   Clear
6:55 AM -7.6 °F -16.5 °F -13.0 °F 77% 30.26 in 10.0 mi WSW 3.5 mph - N/A   Clear
7:15 AM -7.6 °F -16.5 °F -13.0 °F 77% 30.24 in 10.0 mi WSW 3.5 mph - N/A   Clear
7:35 AM -7.6 °F -22.1 °F -13.0 °F 77% 30.24 in 10.0 mi WSW 6.9 mph - N/A   Clear
7:55 AM -5.8 °F -16.7 °F -11.2 °F 77% 30.24 in 10.0 mi WSW 4.6 mph - N/A   Clear
8:15 AM -4.0 °F -19.0 °F -11.2 °F 71% 30.23 in 10.0 mi SW 8.1 mph - N/A   Clear
8:35 AM -4.0 °F -19.0 °F -9.4 °F 78% 30.22 in 10.0 mi SW 8.1 mph - N/A   Clear
8:55 AM -0.4 °F -17.6 °F -7.6 °F 72% 30.21 in 10.0 mi SW 11.5 mph - N/A   Clear
9:15 AM 1.4 °F -13.5 °F -7.6 °F 66% 30.19 in 10.0 mi WSW 9.2 mph - N/A   Clear
9:35 AM 1.4 °F -12.5 °F -5.8 °F 72% 30.18 in 10.0 mi WSW 8.1 mph - N/A   Clear
9:55 AM 5.0 °F -12.3 °F -4.0 °F 66% 30.17 in 10.0 mi SW 13.8 mph 19.6 mph N/A   Clear
10:15 AM 6.8 °F -5.9 °F -2.2 °F 67% 30.16 in 10.0 mi SW 8.1 mph 15.0 mph N/A   Clear
10:35 AM 6.8 °F -9.3 °F -2.2 °F 67% 30.14 in 10.0 mi SW 12.7 mph 19.6 mph N/A   Clear
10:55 AM 8.6 °F -8.3 °F -0.4 °F 67% 30.12 in 10.0 mi SW 15.0 mph - N/A   Clear
11:15 AM 10.4 °F -5.4 °F 1.4 °F 67% 30.11 in 10.0 mi SW 13.8 mph 20.7 mph N/A   Clear
11:35 AM 14.0 °F -3.0 °F 3.2 °F 62% 30.09 in 10.0 mi SW 18.4 mph - N/A   Clear
11:55 AM 14.0 °F -3.4 °F 3.2 °F 62% 30.07 in 10.0 mi SW 19.6 mph 25.3 mph N/A   Clear
12:15 PM 15.8 °F -1.1 °F 5.0 °F 62% 30.05 in 10.0 mi SW 19.6 mph 25.3 mph N/A   Clear
12:35 PM 17.6 °F 0.9 °F 5.0 °F 58% 30.02 in 10.0 mi SW 20.7 mph 27.6 mph N/A   Clear
12:55 PM 17.6 °F 1.3 °F 6.8 °F 63% 29.99 in 10.0 mi SW 19.6 mph 28.8 mph N/A   Clear
1:15 PM 19.4 °F 2.1 °F 8.6 °F 63% 29.98 in 10.0 mi SW 24.2 mph 29.9 mph N/A   Clear
1:35 PM 19.4 °F 2.8 °F 10.4 °F 68% 29.95 in 10.0 mi SW 21.9 mph 29.9 mph N/A   Clear
1:55 PM - - - N/A% 29.93 in 10.0 mi SW 19.6 mph 34.5 mph N/A   Clear
2:15 PM 23.0 °F 7.2 °F 10.4 °F 59% 29.92 in 10.0 mi WSW 23.0 mph 31.1 mph N/A   Clear
2:35 PM 23.0 °F 6.6 °F 10.4 °F 59% 29.90 in 10.0 mi WSW 25.3 mph 35.7 mph N/A   Clear
2:55 PM 24.8 °F 10.0 °F 12.2 °F 59% 29.88 in 10.0 mi WSW 21.9 mph 32.2 mph N/A   Clear
3:15 PM 26.6 °F 12.7 °F 12.2 °F 55% 29.87 in 10.0 mi WSW 20.7 mph 28.8 mph N/A   Clear
3:35 PM 26.6 °F 12.4 °F 12.2 °F 55% 29.86 in 10.0 mi WSW 21.9 mph 32.2 mph N/A   Clear
3:55 PM 28.4 °F 15.1 °F 12.2 °F 51% 29.85 in 10.0 mi WSW 20.7 mph 26.5 mph N/A   Clear
4:15 PM 28.4 °F 14.1 °F 10.4 °F 47% 29.84 in 10.0 mi West 24.2 mph - N/A   Clear
4:35 PM 28.4 °F 15.4 °F 10.4 °F 47% 29.84 in 10.0 mi West 19.6 mph 29.9 mph N/A   Clear
4:55 PM 28.4 °F 15.8 °F 10.4 °F 47% 29.84 in 10.0 mi West 18.4 mph 25.3 mph N/A   Clear
5:15 PM 28.4 °F 16.2 °F 10.4 °F 47% 29.83 in 10.0 mi West 17.3 mph 27.6 mph N/A   Clear
5:35 PM 28.4 °F 16.6 °F 12.2 °F 51% 29.82 in 10.0 mi WSW 16.1 mph 25.3 mph N/A   Clear
5:55 PM 26.6 °F 15.2 °F 12.2 °F 55% 29.82 in 10.0 mi WSW 13.8 mph - N/A   Clear
6:15 PM 26.6 °F 15.2 °F 12.2 °F 55% 29.82 in 10.0 mi WSW 13.8 mph - N/A   Clear
6:35 PM 26.6 °F 15.7 °F 12.2 °F 55% 29.83 in 10.0 mi West 12.7 mph - N/A   Clear
6:55 PM 26.6 °F 15.2 °F 10.4 °F 51% 29.85 in 10.0 mi West 13.8 mph 19.6 mph N/A   Clear
7:15 PM 24.8 °F 14.6 °F 10.4 °F 54% 29.86 in 10.0 mi West 10.4 mph - N/A   Clear
7:35 PM 23.0 °F 13.1 °F 10.4 °F 59% 29.86 in 10.0 mi West 9.2 mph - N/A   Clear
7:55 PM 23.0 °F 11.7 °F 10.4 °F 59% 29.87 in 10.0 mi WNW 11.5 mph - N/A   Clear
8:15 PM 24.8 °F 14.6 °F 10.4 °F 54% 29.86 in 10.0 mi West 10.4 mph - N/A   Clear
8:35 PM 23.0 °F 13.1 °F 10.4 °F 59% 29.87 in 10.0 mi West 9.2 mph - N/A   Clear
8:55 PM 23.0 °F 13.1 °F 10.4 °F 59% 29.88 in 10.0 mi WNW 9.2 mph - N/A   Clear
9:15 PM 23.0 °F 11.1 °F 10.4 °F 59% 29.89 in 10.0 mi NW 12.7 mph - N/A   Clear
9:35 PM 23.0 °F 10.6 °F 10.4 °F 59% 29.91 in 10.0 mi NNW 13.8 mph - N/A   Clear
9:55 PM 23.0 °F 8.7 °F 10.4 °F 59% 29.91 in 10.0 mi NNW 18.4 mph - N/A   Clear
10:15 PM 21.2 °F 8.9 °F 8.6 °F 58% 29.93 in 10.0 mi North 12.7 mph 19.6 mph N/A   Clear
10:35 PM 19.4 °F 5.0 °F 6.8 °F 58% 29.93 in 10.0 mi NNW 16.1 mph 23.0 mph N/A   Clear
10:55 PM 17.6 °F 2.2 °F 3.2 °F 53% 29.94 in 10.0 mi NNW 17.3 mph 24.2 mph N/A   Clear
11:15 PM 15.8 °F 2.7 °F 3.2 °F 58% 29.95 in 10.0 mi NNW 11.5 mph 19.6 mph N/A   Clear
11:35 PM 14.0 °F 1.2 °F 3.2 °F 62% 29.96 in 10.0 mi NNW 10.4 mph - N/A   Partly Cloudy
11:55 PM 14.0 °F -0.8 °F 3.2 °F 62% 29.97 in 10.0 mi NNW 13.8 mph 19.6 mph N/A   Scattered Clouds